User: anonymous   Login
Location: Hale Hill Observatory
(39.3806°N, 86.8431°W)
Time: 02:17:47
(UTC-04:00)
Language:

Cosmos 990 Rocket - Orbit

View from above orbital plane
View from above orbital plane
View from above satellite
View from above satellite

Ground track
Ground track

The orbit data is extracted from the following two-line orbital elements,

1 10677U 78019B   16237.17990077  .00000025  00000-0  16474-4 0  9998
2 10677  74.0385 130.1415 0016359 276.7172  83.2121 14.39974095 19740
Epoch (UTC): 24 August 2016 04:19:03
Eccentricity: 0.0016359
inclination: 74.0385°
perigee height: 747 km
apogee height: 770 km
right ascension of ascending node: 130.1415°
argument of perigee: 276.7172°
revolutions per day: 14.39974095
mean anomaly at epoch: 83.2121°
orbit number at epoch: 1974

The dashed part of the orbit path shows where the satellite is in the earth's shadow,  

DLR